Location: *
(60.1759°S, 155.0663°W)
Time: 13:56:10
(UTC+00:00)

NOSS 3-1 (C) - Pass Details

Date: 17 September 2019
Orbit: 771 x 1438 km, 63.4° (Epoch: 07 October)

Event Time Altitude Azimuth Distance (km) Brightness Sun altitude
Rises 12:47:30 0° 240° (WSW) 4,105 6.6 -25.1°
Reaches altitude 10° 12:50:27 10° 241° (WSW) 3,038 5.9 -24.9°
Maximum altitude 12:57:33 72° 323° (NW) 1,057 3.4 -24.3°
Drops below altitude 10° 13:03:31 10° 45° (NE) 2,571 5.7 -23.7°
Sets 13:05:50 0° 47° (NE) 3,437 6.4 -23.5°
